Volver al catálogo

CZ-6A DEB

ActivoPO
NORAD 60815·DEBRIS·🇨🇳 China

Lanzado Aug 6, 2024 desde Taiyuan Satellite Launch Center

Loading…

Próximos Pases (próximas 24 horas)

TLE

ActualizadoSource: Space-Track

Época: Sep 13, 2026, 22:03 UTC

1 60815U 24140GS  26256.91927975  .00000205  00000-0  21343-3 0  9994
2 60815  88.5488 244.2246 0586956 260.7300  92.7031 13.16524701100298

Sigue CZ-6A DEB en tiempo real con AllMySat

Download on the App Store